Wind_Speed
22 22 21 18 17 19 18 18 20 22 23 25 24 22 22 20 15 13 14 17 19 20 21 22 20 17 17 17 17 17 16 13 12 11 12 14 13 13 14 14 14 14 14 14 16 17 18 20 23 24 24 25 25 25 27 28 27 27 27 28 28 28 27 26 26 26 26 26 27 26 25 25 26 26 26 25 26 27 28 30 29 28 28 28 27 28 28
20 23 23 23 22 20 19 21 23 23 24 25 25 24 25 25 22 19 18 19 19 18 19 22 22 19 16 14 15 16 17 15 14 15 14 14 13 13 14 14 14 14 15 16 16 17 17 19 22 24 23 24 25 25 26 27 26 26 26 27 28 27 26 25 25 25 25 25 24 24 24 24 24 24 24 24 25 26 27 29 28 27 27 28 28 30 32
16 20 22 24 25 23 23 23 25 25 23 24 25 24 23 23 22 23 24 22 18 15 15 18 20 21 19 16 14 15 16 16 16 16 15 14 13 11 11 12 14 14 15 16 17 18 19 20 23 24 23 24 25 25 25 26 26 26 26 27 27 26 25 24 24 24 25 24 23 23 23 23 23 22 22 22 23 25 26 28 28 27 27 29 29 30 32
14 17 20 23 24 24 26 25 25 26 23 22 23 21 20 21 19 21 23 20 15 12 14 15 16 20 22 23 21 17 14 14 15 15 14 13 13 11 8 9 12 14 16 17 19 20 20 22 25 25 24 24 25 25 25 26 26 26 26 26 26 25 24 23 24 24 24 23 22 22 22 23 24 22 20 20 22 23 24 26 27 25 26 28 29 28 29
12 17 20 21 19 19 20 21 24 25 23 23 23 20 21 23 21 17 17 15 13 14 16 16 17 20 22 22 22 19 16 15 16 16 15 15 15 14 9 9 11 15 16 17 19 19 19 23 27 26 25 25 24 24 25 25 26 26 25 25 25 24 23 23 24 23 23 22 22 22 22 22 23 22 21 22 22 21 23 25 25 23 25 27 27 26 26
11 16 18 16 15 15 13 14 19 23 24 24 25 23 24 24 20 17 16 17 17 16 17 19 20 20 18 18 18 18 17 16 17 19 20 18 18 17 11 9 11 14 15 15 17 20 21 23 26 26 24 23 23 23 24 25 26 26 25 24 23 23 23 23 23 23 23 22 22 21 21 21 21 20 21 23 22 22 23 24 24 23 24 26 26 24 24
10 12 13 14 15 13 12 13 17 20 22 23 24 24 24 24 24 23 22 21 20 18 18 19 19 18 19 19 20 21 20 19 18 20 20 18 18 17 11 10 13 14 15 14 16 19 22 24 25 25 24 23 24 24 24 25 25 25 24 23 22 22 22 22 22 22 22 22 21 19 19 20 20 21 22 22 21 23 24 23 24 23 23 25 25 23 23
9 9 11 13 10 9 12 13 10 10 12 13 16 18 19 19 20 22 22 21 20 19 19 19 17 17 18 19 19 21 22 22 22 22 21 21 20 17 12 11 13 14 16 17 18 20 23 24 25 25 24 24 24 24 24 25 24 24 23 22 22 22 22 22 22 22 21 21 20 19 19 20 20 20 21 20 19 21 21 21 23 24 22 23 24 23 23
9 10 11 11 10 11 11 6 0 1 3 4 5 8 12 15 16 17 19 21 22 20 19 18 15 14 14 14 16 20 21 21 20 19 19 20 20 16 13 13 14 16 18 20 22 23 24 25 25 25 24 24 24 24 24 24 23 23 23 21 21 22 21 21 21 21 21 20 20 19 18 19 19 19 19 19 18 18 17 17 19 22 22 23 24 24 23
8 10 11 10 12 11 5 2 4 3 3 4 5 5 9 12 15 17 17 17 19 20 20 19 16 14 14 14 13 15 17 18 17 17 17 18 16 12 12 14 16 18 20 22 24 25 25 25 26 26 25 25 25 23 23 23 23 22 21 20 20 20 20 20 20 20 20 19 19 19 18 18 18 18 19 19 18 17 18 18 18 21 24 23 22 23 23
9 10 9 10 11 7 4 4 2 1 3 4 4 6 7 5 9 12 13 14 14 15 16 18 16 14 14 14 11 11 15 17 18 17 16 17 14 11 12 15 16 18 21 22 24 25 25 26 27 28 27 26 25 23 22 22 22 21 20 20 20 19 19 20 20 19 19 18 18 18 18 18 18 17 17 16 15 16 19 18 18 21 23 20 19 20 21
10 11 10 9 8 5 6 7 3 2 3 2 3 8 6 5 11 12 12 14 13 12 13 13 14 14 14 12 11 13 18 21 18 14 13 14 14 12 13 15 17 19 21 21 22 23 24 25 27 29 27 26 24 22 21 21 19 19 19 19 19 19 19 19 20 19 18 18 17 17 18 18 17 16 15 14 15 17 19 16 14 17 19 17 16 17 16
12 12 11 8 7 6 8 8 4 3 4 5 7 7 2 6 9 9 11 14 14 12 12 9 9 13 14 12 12 15 19 16 12 12 11 11 11 12 13 16 18 19 20 20 20 21 22 24 25 26 25 23 21 21 20 19 17 17 18 18 18 18 18 18 18 17 16 16 17 17 17 17 17 16 16 15 16 18 19 16 15 19 19 16 15 15 15
13 12 11 10 8 7 10 9 7 6 5 7 6 2 2 5 8 9 10 12 13 13 12 10 9 13 16 15 14 14 12 6 5 9 10 10 11 12 14 17 19 18 17 18 19 20 21 22 21 21 21 20 19 19 18 17 16 16 17 17 16 16 16 16 16 15 14 15 16 16 16 16 16 17 16 15 17 18 18 17 18 22 23 18 15 17 18
11 11 12 12 8 7 11 10 8 6 5 4 2 3 3 4 6 8 9 9 10 11 13 12 12 14 16 13 10 9 8 5 5 7 9 10 11 12 14 16 19 18 16 17 19 21 22 21 20 20 20 19 19 18 17 17 17 17 16 15 15 14 14 14 14 14 13 14 14 15 15 16 16 16 15 15 15 17 17 16 17 19 22 21 19 17 17
10 11 10 6 1 6 10 8 4 2 1 3 3 3 3 3 4 5 6 7 9 9 11 14 14 14 12 8 5 6 8 9 8 8 10 10 11 13 14 16 19 19 17 17 20 22 22 22 21 21 22 21 20 19 19 18 18 18 17 16 15 13 12 12 12 12 12 13 13 13 14 16 15 14 14 14 15 17 18 17 16 16 18 21 20 18 17
7 4 2 3 5 6 5 3 4 5 3 3 2 2 3 3 3 4 5 7 8 8 9 12 13 10 7 5 5 6 8 8 8 10 11 11 12 14 14 17 20 21 20 21 23 23 23 23 22 21 22 22 21 19 18 18 18 18 17 17 16 14 12 11 12 11 11 12 13 12 13 15 14 14 14 15 16 18 18 16 16 17 18 19 18 18 18
3 4 7 8 7 7 7 6 6 6 6 6 5 5 5 4 4 5 5 6 7 6 7 9 8 5 3 4 6 6 6 8 10 12 12 13 14 15 15 18 21 23 23 22 22 22 23 22 22 20 20 20 20 19 17 17 17 17 17 17 16 14 12 11 11 11 11 12 12 11 11 12 12 14 16 16 16 17 18 17 17 17 17 18 18 18 18
5 5 7 9 8 8 9 9 8 9 10 10 9 8 7 7 7 6 6 7 8 6 2 1 2 3 4 5 7 8 8 8 11 12 13 14 15 16 17 18 20 21 19 18 18 20 20 20 20 20 18 18 18 18 18 18 17 17 17 16 15 14 12 10 10 10 11 11 11 12 12 12 12 14 17 16 16 17 18 18 18 17 16 18 19 19 19
1 2 6 9 10 9 9 9 8 8 10 13 14 13 12 13 12 11 11 9 8 7 7 8 9 10 10 8 10 11 10 9 10 10 12 14 16 17 18 19 20 19 17 16 17 18 17 17 17 18 17 17 17 17 17 18 18 18 17 16 14 13 11 10 9 9 10 11 11 12 12 11 12 13 15 15 17 18 18 18 17 17 18 20 21 21 21
2 4 3 7 10 10 11 11 10 9 10 13 16 17 17 16 15 14 15 13 9 8 10 11 12 12 12 11 13 13 11 11 11 10 12 14 16 17 18 19 19 19 18 18 18 17 16 16 16 16 15 15 15 15 16 18 18 18 17 16 14 13 11 10 9 9 10 11 12 12 12 12 10 10 10 11 11 12 13 14 15 15 18 21 21 21 20
2 2 1 2 4 6 8 9 9 9 10 12 16 18 18 17 17 17 17 15 14 14 15 14 14 13 13 14 15 15 13 12 12 12 13 14 15 16 18 19 19 19 18 18 19 18 16 15 15 15 14 14 13 13 14 14 15 16 16 14 13 12 11 10 11 11 11 12 13 12 14 16 14 11 8 7 7 8 9 12 13 13 15 18 19 18 17
0 1 1 0 2 5 8 8 9 9 9 11 15 17 17 16 17 17 16 15 16 16 17 18 17 16 16 16 17 17 16 14 13 13 13 13 13 15 17 17 16 17 17 17 17 16 15 14 14 14 14 13 12 11 11 11 12 13 13 11 10 11 11 9 10 10 10 12 13 13 15 17 16 14 11 9 9 9 9 9 11 12 13 15 17 16 15
2 2 3 4 5 7 8 8 9 10 10 10 12 14 15 15 16 16 14 14 15 15 16 18 19 18 17 17 18 18 17 16 15 14 14 15 14 14 15 15 14 15 15 15 14 14 14 13 14 13 13 12 11 10 10 10 10 11 10 9 8 9 9 7 8 7 7 9 11 12 14 16 16 16 16 13 11 10 11 12 12 12 14 15 16 16 14
3 4 6 7 8 9 7 7 9 10 10 11 11 12 13 14 14 13 13 12 13 15 16 17 18 20 19 18 17 17 16 16 16 15 15 15 14 13 14 14 14 13 13 12 12 12 13 13 13 13 12 11 10 10 9 9 9 9 8 7 6 6 6 8 8 7 7 8 10 12 14 14 13 14 15 13 10 9 9 10 10 11 12 13 14 14 12
7 5 7 9 9 7 6 6 8 10 11 11 11 10 11 13 13 12 12 12 12 14 16 15 16 19 20 19 18 17 16 16 17 17 15 13 14 13 12 12 12 12 12 12 11 11 12 12 11 11 11 10 9 10 9 9 8 8 7 6 4 4 6 8 9 10 9 9 9 11 13 14 13 11 11 11 10 9 8 8 8 8 10 11 13 13 12
11 8 9 11 11 9 8 7 8 9 10 11 11 11 9 10 11 11 11 12 13 14 15 15 16 17 19 20 19 18 17 16 16 16 14 13 14 13 12 10 10 10 10 10 10 10 10 10 10 10 10 9 9 9 10 9 8 7 7 7 5 5 6 7 9 11 11 10 10 12 13 14 13 12 11 11 12 12 10 9 9 9 10 10 12 13 12
12 11 10 10 10 10 11 11 10 9 9 9 10 10 10 9 9 8 8 10 12 12 13 16 16 14 14 16 16 15 15 15 15 14 14 14 14 14 13 10 7 8 8 9 9 9 8 9 9 9 9 8 8 9 10 9 8 8 8 8 7 8 8 8 8 9 11 11 12 14 15 14 12 11 12 12 11 11 11 11 13 15 14 13 14 14 12
11 11 10 9 10 10 10 11 12 12 11 9 9 9 10 11 11 9 7 8 9 10 10 12 13 12 11 13 13 12 11 12 12 13 15 16 15 15 15 12 7 6 8 7 7 7 6 7 8 8 8 6 6 7 8 8 8 8 8 7 7 8 10 9 8 8 9 9 11 14 14 13 12 12 13 12 11 12 14 15 16 18 20 20 20 18 17
8 9 9 9 10 11 12 11 12 12 11 10 10 11 11 11 11 10 8 8 9 9 7 8 9 9 10 10 10 10 10 11 12 12 14 16 15 14 16 15 9 6 7 7 6 6 5 5 7 7 5 4 4 5 6 7 7 7 7 5 3 6 9 8 7 9 10 10 12 14 13 11 12 12 12 12 13 14 15 15 16 17 18 19 19 18 17
8 9 10 9 10 11 11 10 10 10 10 10 10 11 11 11 10 9 9 9 8 6 5 4 5 6 6 5 5 6 6 8 10 10 9 10 11 13 14 13 9 6 6 7 7 6 5 6 7 6 4 3 3 3 3 4 4 5 5 4 6 9 11 9 7 9 10 10 11 11 11 11 12 12 11 13 14 15 15 16 16 15 15 16 15 15 16
8 9 9 8 8 9 10 9 8 9 9 9 9 10 9 9 9 8 8 7 6 5 4 4 4 5 5 3 5 6 4 6 8 7 6 3 5 8 9 8 5 5 6 6 6 6 6 6 6 5 5 4 3 2 1 2 3 3 4 5 7 9 11 9 7 8 10 10 10 10 10 10 11 11 11 12 14 15 16 16 15 14 14 14 14 15 17
7 7 7 7 7 8 8 8 6 6 6 6 6 6 7 7 8 7 6 6 6 5 5 5 5 5 4 3 4 5 6 8 8 7 4 2 1 2 4 4 1 3 4 5 6 6 6 6 6 5 4 4 3 2 1 1 2 3 4 6 7 9 10 9 9 10 10 10 10 10 10 10 10 10 11 12 12 13 14 14 14 15 14 14 15 17 20
5 4 4 4 5 6 7 6 5 4 4 4 3 4 5 6 6 6 6 6 6 6 5 4 4 3 3 2 3 4 4 4 4 2 2 2 2 2 2 1 2 4 5 5 5 5 6 6 6 5 4 3 2 2 2 1 1 2 5 6 7 9 9 9 9 9 9 9 10 11 11 10 10 10 10 10 11 12 12 13 14 15 14 14 15 17 21
3 3 3 3 4 5 5 5 5 5 5 4 4 4 5 5 6 6 6 6 6 5 4 4 5 5 4 3 3 3 2 1 1 2 2 3 2 2 2 2 2 4 6 7 6 5 6 6 5 5 5 3 0 1 2 2 2 2 4 6 7 8 8 8 9 9 9 10 12 11 10 9 9 9 10 11 11 11 11 12 13 13 14 14 14 15 20
4 4 4 3 4 5 4 4 4 5 5 5 5 6 6 6 7 6 6 7 7 6 5 5 6 6 5 5 4 3 3 2 2 2 3 3 3 3 3 3 3 4 5 6 6 6 6 7 6 5 5 4 3 3 3 3 3 1 3 5 7 8 8 8 9 10 10 11 11 10 10 10 9 9 9 9 9 9 9 10 11 11 12 13 13 14 19
5 5 5 5 4 4 4 4 4 4 4 5 5 6 6 6 6 6 6 6 6 6 6 6 6 6 5 5 5 3 2 3 3 4 4 3 3 3 3 4 4 4 4 5 5 5 6 7 6 5 4 4 5 5 3 1 1 0 3 5 6 8 9 9 10 10 11 11 11 10 11 10 10 9 8 7 8 9 9 9 9 9 11 12 12 13 16
7 7 6 6 6 5 5 4 5 5 5 6 6 7 6 6 6 6 6 6 6 6 5 5 5 5 4 4 5 4 3 4 5 5 4 4 4 4 5 5 6 6 5 4 4 5 6 6 6 5 3 3 3 4 3 2 1 0 2 4 5 7 9 9 9 10 10 11 11 11 11 10 9 9 8 7 7 8 8 8 8 9 10 12 12 12 13
7 7 6 6 6 5 5 6 7 8 8 7 7 7 7 6 6 6 6 6 6 6 5 4 5 5 4 4 4 5 6 6 6 6 5 5 5 6 9 9 8 8 7 6 6 6 6 6 4 3 3 3 3 3 2 2 1 1 2 5 6 7 8 9 9 9 9 10 10 10 10 9 8 8 7 7 8 8 7 7 8 8 10 13 15 14 14
6 6 6 6 6 6 6 7 9 10 10 10 9 8 8 7 7 7 7 6 6 6 6 5 5 5 5 5 5 6 7 7 7 7 6 5 5 6 8 9 9 8 8 7 7 7 6 6 4 4 4 3 3 3 2 1 1 1 3 5 6 6 7 8 9 8 8 8 9 9 8 7 7 7 7 7 7 6 6 7 8 8 10 14 17 17 16
6 6 6 6 6 6 7 8 9 10 11 11 10 10 9 9 8 8 7 7 7 7 8 7 6 6 6 6 6 6 7 7 8 7 7 6 5 5 5 7 8 8 7 6 5 5 5 6 6 6 5 5 4 4 3 1 1 1 3 4 5 7 7 7 7 7 7 7 8 7 6 6 5 5 7 11 12 11 10 11 11 10 9 11 14 15 16
7 7 8 7 7 7 8 9 9 10 10 11 12 11 11 10 10 9 9 9 9 8 8 8 7 7 6 6 6 6 7 7 7 8 8 8 7 6 5 6 7 8 6 5 3 4 5 6 6 7 7 6 5 4 3 2 1 2 3 4 4 5 6 6 6 7 8 10 10 8 7 9 9 9 9 11 12 13 12 12 11 9 6 7 10 12 13
7 8 7 7 7 7 8 8 8 9 10 11 11 11 11 11 11 11 10 10 10 10 9 9 8 8 8 8 7 7 7 7 7 7 8 8 9 8 7 7 7 7 6 5 4 6 7 7 7 7 6 6 5 4 4 3 1 2 4 5 5 4 3 4 5 5 5 7 9 9 8 8 10 10 9 8 7 7 7 7 6 5 4 5 6 7 8
8 7 7 7 7 8 8 8 8 8 9 10 10 10 10 10 10 10 10 10 10 10 10 10 10 9 9 9 8 8 8 9 8 7 6 6 7 9 9 8 7 8 7 7 7 8 9 8 8 7 5 4 3 4 5 2 1 2 2 4 7 7 6 5 6 6 5 5 6 9 8 6 6 6 7 6 5 5 5 6 6 6 6 6 6 6 6
8 7 7 8 8 8 7 6 6 6 6 7 9 9 8 8 8 8 8 8 9 9 10 10 11 11 11 10 9 8 7 8 9 9 7 5 6 8 9 8 8 8 8 8 7 8 8 7 6 5 5 4 4 6 5 2 2 3 2 1 1 3 4 4 5 7 6 4 4 6 7 6 5 5 6 6 7 7 6 6 6 5 5 5 5 5 4
6 7 7 8 8 7 6 5 5 6 7 7 7 7 8 8 8 7 7 7 7 7 8 9 10 10 11 11 10 9 7 7 8 9 8 6 6 7 8 8 7 8 9 9 7 7 7 6 5 4 4 3 6 8 6 2 1 1 4 3 1 1 1 1 1 4 5 4 4 5 7 8 9 9 7 6 6 5 2 3 2 3 4 4 4 3 3
5 5 6 6 5 4 4 5 6 6 6 5 5 6 7 8 8 7 6 5 4 5 6 7 8 8 8 8 8 9 10 9 8 9 10 8 6 6 6 6 7 8 8 7 6 6 5 4 3 2 1 2 6 8 5 2 3 2 2 4 4 4 4 4 4 5 5 6 7 6 6 7 9 8 6 5 3 3 1 1 3 5 6 5 5 5 5
5 5 5 5 3 2 3 3 5 5 4 4 5 6 6 6 7 7 7 5 4 4 6 8 7 7 6 6 8 10 11 11 9 9 11 11 9 7 6 6 7 8 7 5 2 2 2 3 3 2 1 2 5 6 3 1 2 3 2 2 3 4 5 5 5 6 6 5 5 5 5 5 4 3 3 4 6 6 6 6 7 7 7 8 8 6 6
6 7 6 5 4 2 3 2 3 3 3 3 5 5 5 4 5 6 6 7 6 6 7 9 9 8 8 8 9 11 11 10 9 9 10 11 11 10 9 6 6 7 8 7 4 1 1 3 4 4 4 5 7 7 4 2 1 1 1 2 3 4 3 1 1 3 5 5 5 6 7 7 6 6 6 7 8 7 7 7 6 5 6 8 8 8 8
5 6 6 5 4 5 6 6 5 5 5 5 5 5 5 5 4 5 6 7 7 7 7 9 10 10 9 9 9 10 10 10 10 11 11 11 11 11 11 10 8 7 8 10 8 4 2 3 5 5 6 6 7 7 6 5 4 4 3 3 3 4 3 3 4 2 2 4 5 7 9 9 8 6 5 5 6 7 7 7 7 6 7 8 10 11 11
3 4 6 5 5 6 7 7 7 7 6 6 6 5 5 6 5 5 5 6 7 7 7 8 9 10 9 9 10 11 12 12 12 12 12 13 12 12 11 11 10 8 8 8 9 7 5 5 5 6 6 7 8 8 8 7 7 6 6 6 6 7 6 4 4 4 5 5 7 9 10 10 9 8 6 6 7 7 7 8 10 10 9 10 11 11 10
7 6 6 6 5 5 6 5 5 6 6 6 6 6 6 7 7 6 5 6 7 8 8 8 9 10 10 10 10 12 12 12 13 13 13 13 13 13 13 12 10 9 9 9 10 10 9 8 6 6 6 8 8 8 8 8 9 9 9 8 8 9 9 8 7 8 9 9 9 10 11 11 11 11 10 10 10 9 9 10 11 11 11 11 10 10 9
Wind_Direction
229 242 249 238 230 235 233 225 223 223 225 228 229 229 229 229 235 239 231 227 231 236 243 247 246 231 212 214 229 236 232 224 220 210 188 178 180 180 183 187 189 191 189 185 183 182 181 183 185 186 188 188 187 184 184 186 186 185 183 182 184 185 188 193 193 193 193 195 198 199 199 199 199 201 201 203 207 207 208 214 210 196 187 181 175 176 179
228 233 243 244 241 238 233 231 233 228 224 227 232 234 233 232 237 242 239 236 235 232 233 239 249 251 235 215 215 226 229 225 227 228 211 194 192 188 183 186 188 189 189 186 184 184 183 183 184 185 187 187 186 183 183 185 186 183 179 179 182 185 188 190 190 190 191 193 195 195 197 200 199 199 200 203 208 209 210 214 212 198 187 181 176 178 181
239 231 233 238 241 243 239 233 233 233 229 227 229 232 233 235 237 238 240 241 239 235 230 229 238 251 255 244 222 216 221 224 230 236 230 222 222 214 199 192 188 188 189 185 185 188 186 183 183 185 186 185 185 182 181 182 183 180 177 177 181 184 186 187 187 187 188 191 192 192 197 203 204 201 200 204 211 211 208 212 215 203 187 181 178 178 180
242 236 236 237 235 239 244 241 236 234 232 230 230 228 229 233 235 236 240 242 238 235 235 230 229 239 249 251 244 233 224 220 226 237 241 241 241 236 216 194 187 190 190 188 189 191 189 183 181 184 185 182 182 181 179 179 178 177 177 177 179 182 183 184 185 185 188 191 192 193 196 204 210 209 204 206 214 213 206 209 215 203 186 180 178 179 183
236 233 237 241 238 236 238 238 238 238 237 236 235 230 228 230 232 233 236 241 242 238 237 235 231 231 235 241 244 245 244 240 237 239 242 242 244 244 225 191 191 195 194 194 193 192 191 185 180 182 183 180 180 179 175 174 175 175 176 176 178 181 182 184 184 185 190 193 194 195 195 200 210 214 211 212 214 211 205 207 209 197 184 180 180 184 188
236 232 233 239 239 236 235 233 237 243 246 246 244 238 231 228 231 235 235 235 237 236 235 235 233 233 234 237 241 243 246 249 246 241 240 236 239 246 237 203 204 205 197 197 194 190 192 187 178 177 179 177 176 175 171 172 173 174 175 175 177 180 182 184 185 187 193 196 198 198 195 199 209 213 215 215 211 209 208 207 202 194 186 184 185 189 190
235 233 232 233 232 235 245 239 233 239 248 256 261 258 245 234 233 238 240 238 233 231 235 237 234 233 235 238 242 241 240 243 244 242 240 234 235 242 233 207 211 208 195 193 190 186 188 183 174 173 175 174 172 172 170 171 172 173 174 174 175 179 182 184 185 187 190 194 199 197 194 201 210 214 216 214 209 211 214 209 203 198 189 184 185 188 188
229 226 224 232 239 251 254 245 235 243 257 265 273 273 263 251 245 242 244 245 241 235 234 235 234 232 232 235 240 240 237 239 241 239 237 234 233 229 213 202 205 197 187 188 185 179 179 177 171 171 173 172 169 169 168 169 171 173 173 174 175 178 181 183 185 186 186 190 196 198 199 205 210 213 216 213 208 213 217 212 206 202 195 186 184 186 185
219 227 230 237 248 249 246 245 215 359 304 292 292 289 281 278 276 266 254 247 246 244 239 238 240 238 237 239 238 233 232 236 241 241 239 238 235 221 204 199 192 183 182 183 178 174 175 173 168 167 169 168 165 166 167 168 169 170 171 174 175 177 179 182 183 182 181 186 194 198 201 204 207 213 216 213 209 211 214 210 202 201 201 193 184 183 184
213 225 232 235 236 230 213 91 74 57 355 351 355 313 275 273 285 286 280 269 260 255 246 239 238 241 242 243 236 228 229 232 236 239 240 241 239 221 198 189 180 175 179 179 174 171 171 170 164 162 163 164 163 164 166 166 166 167 170 173 174 175 177 178 179 178 178 182 191 197 201 203 206 212 215 212 210 208 209 209 203 203 207 198 184 185 186
216 222 227 230 233 218 147 133 148 29 8 11 347 281 254 284 325 321 322 318 302 287 269 248 236 235 239 239 236 234 238 238 235 233 232 232 231 217 194 184 176 173 175 175 171 169 169 166 161 160 161 161 162 164 165 165 165 167 169 172 172 174 175 174 174 175 175 179 187 195 200 203 206 210 210 208 206 202 204 210 208 206 206 196 183 186 186
217 223 229 231 238 217 161 162 187 320 345 359 255 240 236 4 0 347 336 324 316 320 311 277 246 236 238 240 237 239 245 243 230 217 218 219 215 206 190 179 171 168 169 169 168 168 168 164 159 159 159 159 161 162 162 163 165 166 168 170 169 169 169 167 169 172 173 178 185 192 198 202 204 207 205 200 192 191 197 202 197 193 194 187 183 188 189
216 221 227 234 244 218 181 176 196 263 288 268 239 230 255 351 342 343 339 324 315 317 316 297 262 252 252 248 241 246 255 249 215 193 200 204 195 185 174 163 159 161 164 166 168 167 163 159 157 156 156 155 155 155 155 157 160 161 162 162 161 162 162 162 166 169 171 176 184 192 198 199 200 202 203 195 181 181 193 199 189 186 186 181 182 191 197
218 219 223 235 241 200 167 170 181 188 224 247 239 232 330 321 321 332 332 322 319 314 303 290 278 275 271 258 245 252 267 266 185 176 181 178 175 173 162 153 155 159 161 162 162 157 151 149 150 150 149 145 144 145 146 146 148 148 149 150 151 153 156 159 163 166 169 175 185 193 196 198 200 200 199 193 181 182 194 198 191 190 190 187 193 205 208
218 219 219 232 235 175 164 178 185 188 221 264 340 1 327 314 323 322 315 315 320 312 300 289 279 274 273 267 255 256 260 238 197 182 168 161 160 154 146 148 154 155 152 150 148 143 139 139 140 139 136 131 131 133 130 128 132 133 135 139 141 144 152 158 162 165 168 174 184 192 195 198 199 192 184 178 175 179 186 184 181 187 193 197 205 213 212
215 220 220 230 186 147 175 194 181 160 274 348 5 334 326 355 345 322 317 323 321 309 297 291 279 264 256 251 238 232 229 215 195 171 154 150 148 145 147 151 150 146 140 136 135 132 130 130 129 128 126 123 122 122 121 123 128 130 131 133 132 136 150 159 163 167 171 178 187 193 195 196 191 180 174 174 176 182 183 177 177 188 199 203 206 208 207
217 217 172 100 90 122 160 166 118 115 100 60 34 350 3 23 5 343 332 326 325 316 291 280 274 262 240 213 196 203 209 199 168 142 136 138 139 140 140 136 132 132 130 126 124 122 118 115 116 117 120 120 119 119 122 126 129 131 132 132 131 138 153 163 169 172 173 179 188 192 193 192 185 178 181 183 185 189 189 184 187 196 202 203 204 205 202
158 100 97 103 108 114 116 111 107 108 97 80 65 49 38 29 20 8 347 334 334 317 276 261 261 257 228 186 166 158 163 155 135 123 123 127 127 126 123 119 120 123 122 116 111 107 103 104 108 111 116 118 119 122 127 129 130 131 131 130 131 139 152 161 168 173 176 182 187 187 188 190 187 186 190 189 186 189 191 193 200 202 198 198 201 200 195
192 154 120 112 111 109 108 105 96 86 83 76 67 62 55 41 32 30 23 5 355 352 358 121 120 109 113 130 125 111 101 104 107 107 112 117 117 116 113 112 112 112 109 104 101 99 100 105 110 113 116 118 121 127 131 131 131 131 130 131 133 139 148 156 165 177 182 180 182 184 186 192 197 195 193 190 189 191 192 197 204 203 194 193 197 195 190
221 107 101 104 105 95 86 88 85 79 80 77 68 62 58 51 44 47 55 43 12 11 46 68 80 89 91 97 103 100 93 86 86 91 99 104 105 103 100 99 100 99 97 96 97 96 97 102 107 112 116 120 126 132 133 132 133 133 131 133 135 140 149 155 164 180 184 175 177 183 182 188 198 194 188 193 198 198 198 201 205 203 195 192 193 192 189
37 39 72 115 115 99 84 81 76 66 68 73 71 65 57 52 46 44 52 59 54 44 54 64 74 83 88 92 94 93 87 81 80 83 88 90 90 90 89 87 89 92 95 96 96 96 96 98 101 105 108 114 123 129 130 132 135 135 133 136 141 148 156 162 167 180 185 181 185 183 170 166 171 168 175 196 202 196 198 206 211 209 200 194 193 192 190
92 10 326 142 120 104 91 77 65 60 60 63 68 65 55 46 43 38 35 40 48 48 47 51 60 67 68 72 78 79 71 65 66 70 74 77 78 80 84 87 88 91 95 98 100 101 103 105 107 109 111 115 121 124 127 134 137 134 135 143 152 157 165 175 177 179 184 186 186 175 162 160 156 144 149 177 185 179 188 202 212 214 204 196 195 191 181
59 307 283 59 66 90 87 63 44 45 51 56 65 67 58 45 40 39 31 25 28 35 38 38 42 47 50 54 60 62 58 53 54 59 66 73 79 82 83 86 90 91 93 97 100 102 107 111 113 116 119 122 125 127 131 136 137 136 141 153 163 168 177 181 173 172 182 187 180 165 158 159 154 140 132 134 143 151 156 166 185 194 189 187 189 184 175
315 6 62 77 84 91 86 67 51 45 45 51 57 62 62 52 39 35 34 27 22 26 30 31 31 34 39 46 51 52 50 47 46 49 56 63 73 83 84 84 88 92 93 96 99 103 110 113 113 114 115 116 120 124 126 130 134 137 145 157 169 177 177 156 144 160 179 176 163 147 142 149 150 142 135 124 116 122 132 139 153 166 167 169 176 179 183
25 60 83 94 96 99 102 91 73 59 54 56 53 53 59 60 47 33 27 24 23 25 27 26 24 25 28 34 41 46 46 42 38 40 47 52 57 66 75 80 83 86 89 94 99 105 110 110 108 109 111 113 117 120 120 128 135 138 148 165 179 182 161 134 137 162 165 155 152 140 134 142 150 147 143 138 125 118 126 133 142 152 154 158 170 182 189
26 63 99 97 87 89 109 109 84 67 63 64 62 57 55 59 59 47 30 22 24 27 28 25 19 19 22 24 27 32 37 37 34 34 38 43 45 48 56 66 75 80 84 87 92 97 103 105 106 110 113 115 120 123 122 127 133 137 152 170 171 153 143 144 157 167 161 155 158 148 137 143 157 160 160 163 160 151 142 137 136 134 132 139 154 167 168
32 49 81 89 81 72 75 82 79 77 79 80 79 77 69 61 58 50 39 33 28 25 30 31 24 18 19 18 16 17 21 26 29 30 31 33 34 35 39 50 67 80 85 87 90 94 101 106 108 111 112 113 120 128 127 128 134 138 150 168 162 131 130 151 166 167 163 164 165 156 148 152 162 168 169 170 170 167 165 158 138 109 96 112 135 146 151
48 53 69 86 85 71 63 65 68 69 73 80 88 93 93 83 69 58 50 45 35 26 26 29 30 27 20 14 12 10 10 14 17 17 19 21 22 22 23 30 53 76 81 88 98 100 105 111 110 106 106 112 126 133 130 134 144 145 153 176 180 155 148 167 180 172 169 172 168 160 155 156 158 158 159 161 165 165 159 147 129 114 110 118 127 133 142
56 62 70 83 90 82 67 58 57 56 54 60 73 80 82 83 81 73 64 57 50 40 23 15 24 35 26 11 8 6 3 5 7 3 1 3 7 9 3 359 17 66 69 69 83 90 96 109 113 109 111 121 135 140 139 144 153 159 168 184 187 169 164 176 181 170 166 165 154 146 146 152 154 153 155 159 163 161 153 142 134 133 135 135 131 131 137
50 59 64 67 74 76 69 57 54 55 53 54 60 61 59 63 68 66 61 57 56 50 28 3 9 26 26 12 1 354 350 352 354 352 348 350 355 359 354 351 4 48 49 40 52 66 75 91 100 100 101 115 131 142 155 160 160 172 184 182 158 157 165 169 165 154 145 136 135 138 146 158 161 158 160 162 160 157 152 146 142 144 147 145 142 140 140
50 57 61 60 59 62 61 57 56 55 50 45 47 49 49 52 55 57 57 56 53 50 45 25 4 10 24 14 330 316 323 330 330 328 327 334 347 354 351 351 4 23 20 20 30 37 49 75 88 78 56 57 98 128 160 164 159 176 182 145 104 119 136 144 150 148 138 134 142 151 159 165 164 163 165 164 160 156 154 152 151 151 151 150 147 143 141
47 47 47 51 57 60 57 55 56 54 47 41 40 39 38 43 48 49 52 54 52 47 52 49 20 5 14 352 297 281 266 261 268 270 269 297 358 359 340 332 353 17 14 14 21 28 40 59 73 67 51 49 66 88 140 145 139 163 172 153 135 133 136 141 148 144 139 146 159 166 170 175 174 172 172 171 167 162 158 156 154 153 153 152 148 145 150
39 37 29 26 33 45 50 52 55 56 53 49 43 35 30 34 43 46 50 54 55 49 48 43 21 1 358 330 290 275 254 234 226 222 226 239 349 333 290 280 348 51 39 26 26 34 40 38 37 39 38 37 40 38 58 140 152 161 158 153 150 146 144 147 151 147 148 157 163 166 174 180 179 176 176 176 173 165 160 157 154 153 156 157 152 156 167
36 40 31 12 9 22 38 44 47 52 57 66 73 56 38 35 40 43 42 46 51 52 48 33 3 351 356 332 295 276 260 244 229 223 253 272 280 290 292 302 88 83 66 46 36 41 43 33 21 11 5 12 34 33 16 350 255 191 163 152 153 154 156 161 166 167 167 164 160 164 172 175 172 171 170 167 161 154 151 151 152 153 158 158 155 165 179
51 60 60 33 16 22 32 36 36 36 36 44 61 63 53 49 49 47 43 44 46 48 45 21 5 14 33 17 339 328 340 344 326 315 315 316 323 348 8 26 79 90 72 51 38 41 44 34 13 351 341 334 335 49 25 352 310 233 171 160 160 161 161 164 168 169 161 153 154 162 166 163 160 160 158 157 158 156 154 156 159 162 166 161 153 162 178
45 53 59 56 43 38 39 40 46 51 46 43 51 55 53 54 55 51 46 44 39 36 42 40 30 30 40 39 24 12 10 14 23 18 6 358 360 15 31 33 45 75 75 55 39 39 46 43 29 6 349 348 14 35 24 344 322 270 185 178 171 164 164 164 162 159 155 154 158 160 153 146 146 151 156 161 166 166 165 165 166 167 169 165 156 156 170
59 59 59 61 60 58 54 48 54 67 70 65 65 63 59 59 62 59 53 51 45 35 35 46 50 43 36 42 53 48 28 31 45 42 36 38 42 50 63 58 48 61 72 57 36 33 36 33 22 10 3 16 33 40 43 15 2 7 201 194 174 163 165 166 161 156 153 153 151 147 143 143 146 152 158 165 168 168 168 168 167 164 163 165 163 159 164
74 71 70 71 68 68 70 74 81 89 88 80 73 70 66 67 70 67 62 61 53 36 32 53 72 70 55 58 72 72 58 59 65 61 57 62 69 75 74 60 46 48 52 39 28 31 25 10 360 4 22 59 64 61 81 110 69 25 197 184 165 159 162 159 152 149 147 145 145 148 152 152 151 151 156 164 168 170 169 168 169 168 164 163 165 165 167
78 77 80 84 85 86 86 82 80 81 82 81 79 77 73 70 69 69 68 63 50 35 32 56 82 87 80 72 76 72 61 58 65 69 68 69 78 84 76 62 51 51 47 36 36 37 13 343 339 16 40 68 87 82 96 123 92 71 167 165 156 158 159 149 138 139 144 145 147 152 154 153 155 158 160 160 163 169 175 177 179 182 180 177 177 178 178
78 78 80 83 85 86 83 78 72 69 69 72 76 80 80 77 72 67 66 63 54 44 42 46 58 68 64 55 57 61 59 55 56 59 63 68 81 89 83 67 54 51 46 37 42 42 17 356 9 48 49 50 67 63 61 140 150 181 190 175 158 155 154 144 141 150 156 153 155 162 162 159 161 160 154 155 163 169 172 180 192 201 192 180 177 180 182
77 77 76 76 75 72 71 73 72 68 63 62 65 68 72 74 75 70 66 63 61 58 54 46 41 43 43 45 50 51 50 54 57 54 50 50 57 69 72 57 44 42 38 32 38 47 37 32 46 55 47 44 56 60 52 41 208 198 185 172 163 162 160 157 163 171 166 158 167 175 156 137 146 166 165 167 176 180 178 184 201 213 200 173 167 171 177
75 74 74 75 74 69 67 68 71 71 67 62 60 58 58 60 63 65 63 59 57 59 58 53 45 38 35 39 48 49 46 50 57 58 53 48 44 44 53 58 53 45 31 20 39 62 55 47 49 46 38 41 58 67 58 49 171 165 149 146 151 156 162 171 181 182 173 170 179 184 162 151 172 199 198 183 182 184 184 186 194 202 198 181 175 176 178
76 76 77 78 75 71 67 63 63 66 66 63 60 59 57 55 55 57 58 56 53 51 50 47 43 39 36 37 39 42 43 45 50 61 68 64 53 48 51 57 59 49 25 10 40 63 53 45 47 44 41 54 68 52 20 10 72 133 138 139 135 139 177 189 166 160 179 183 169 161 163 175 188 196 194 185 182 181 178 178 184 188 196 205 203 197 193
78 76 75 73 71 70 68 64 61 64 67 66 63 61 60 57 54 52 52 56 56 51 46 42 37 33 35 39 39 36 36 34 30 37 58 69 62 53 48 47 52 50 31 18 33 50 48 47 51 49 46 60 54 360 337 337 87 94 108 141 145 156 188 197 159 153 195 212 163 150 168 194 195 180 171 167 171 179 185 193 200 202 205 216 223 223 225
82 82 80 78 74 70 67 64 64 69 73 72 67 62 59 60 61 54 47 48 53 53 49 44 37 28 25 30 35 37 44 45 36 29 30 41 46 40 33 34 44 42 23 12 33 56 58 56 58 62 68 61 10 337 331 342 100 98 90 108 147 155 179 190 162 155 177 197 168 158 169 173 170 175 176 173 179 192 195 190 192 201 215 231 238 236 237
86 86 85 83 80 76 71 64 58 55 55 55 56 54 49 48 54 57 51 43 47 53 52 47 42 34 26 22 21 25 35 49 54 48 41 44 54 46 31 26 33 24 6 3 28 58 66 61 56 71 90 55 340 333 340 353 359 104 129 138 128 100 144 188 146 136 147 160 166 171 173 173 179 185 179 171 184 193 146 106 140 224 245 252 262 278 284
84 81 82 84 84 78 70 63 58 53 48 42 42 46 48 44 43 49 53 51 60 80 75 60 51 48 38 24 22 24 17 12 24 37 30 23 45 64 49 30 22 11 1 8 34 49 52 49 37 36 66 347 329 335 351 360 316 308 171 159 156 151 155 163 161 159 163 166 171 182 197 202 197 181 145 129 172 212 163 118 223 239 246 251 258 268 272
104 99 91 90 85 56 35 55 65 58 44 38 37 36 40 44 42 38 35 29 32 70 75 62 51 47 39 31 40 44 29 7 4 16 9 356 359 20 27 27 27 14 356 355 37 50 13 347 337 326 270 273 300 312 321 340 320 309 274 229 213 196 182 177 187 199 195 174 166 190 218 227 216 194 172 190 217 231 239 241 244 253 264 264 260 261 271
99 100 95 94 90 51 2 32 76 67 33 38 48 33 12 18 35 35 25 13 7 21 40 40 32 27 22 19 29 41 36 16 5 8 1 350 349 352 349 354 21 22 359 342 339 347 328 314 310 297 265 260 276 284 281 266 270 270 262 272 267 245 228 190 196 218 201 172 171 206 222 222 217 220 226 232 237 241 246 253 266 292 298 282 272 277 286
54 72 75 74 71 49 24 20 31 29 10 13 34 26 358 348 8 25 21 9 0 5 18 22 15 10 8 5 5 12 14 7 2 1 357 353 351 348 339 333 339 348 342 333 328 319 267 254 273 273 258 255 266 273 269 261 253 242 236 243 250 247 264 347 4 340 221 195 204 220 226 227 228 228 231 245 257 261 262 266 279 302 310 294 280 276 277
26 46 56 49 46 55 52 39 25 16 8 3 8 7 352 342 352 12 18 7 355 353 1 6 1 355 353 351 347 346 348 348 349 349 348 347 346 342 335 329 323 315 305 302 305 301 282 260 253 248 245 250 259 262 262 262 257 247 240 239 238 236 238 243 245 239 236 237 241 241 239 237 238 240 240 245 255 265 273 272 269 271 276 277 272 269 270
36 20 25 24 19 38 59 52 23 8 4 359 358 359 351 339 337 346 1 1 351 345 347 352 348 341 340 343 342 337 335 338 340 340 340 340 339 335 330 326 322 315 303 293 288 286 284 280 269 252 247 256 263 263 261 258 255 252 252 251 248 247 248 243 232 228 228 230 237 246 249 246 245 248 249 247 245 250 258 264 265 266 267 268 266 266 270
Height
658 653 648 644 648 650 647 650 655 655 654 655 657 660 658 660 674 679 667 665 674 669 656 649 641 638 641 644 645 644 640 639 639 641 647 651 653 655 657 659 659 660 662 662 664 665 666 669 673 676 679 682 683 686 689 692 696 700 703 708 711 715 718 721 724 727 731 734 736 739 742 744 746 748 750 753 756 759 761 764 767 767 768 770 773 775 778
657 654 653 648 647 649 649 650 650 648 649 652 653 654 652 653 660 661 658 663 664 655 649 645 637 632 631 632 635 637 637 638 639 640 643 646 648 651 654 656 656 657 659 660 662 664 664 666 670 673 676 679 681 684 686 690 693 696 701 705 708 712 715 718 722 724 727 730 733 736 739 741 743 745 747 750 753 755 758 761 765 765 765 766 768 770 773
661 653 652 651 650 651 650 649 646 641 643 647 650 651 649 651 655 654 655 662 660 646 638 638 637 633 631 631 633 635 636 637 638 639 639 640 642 643 647 651 653 654 656 658 660 661 661 662 665 669 673 675 678 681 683 687 690 694 698 702 705 709 712 715 719 722 725 728 730 733 736 739 742 743 745 747 750 752 754 759 763 764 762 762 764 766 769
670 655 654 654 649 651 653 650 644 641 642 644 642 641 643 648 654 657 660 663 657 644 636 637 638 637 637 637 635 634 633 633 635 638 637 637 638 637 640 645 650 653 655 655 657 657 657 657 660 665 669 672 675 678 680 685 688 692 696 698 702 706 709 713 716 719 722 725 728 731 733 736 740 742 743 745 747 750 752 756 761 761 759 759 761 764 767
673 659 656 652 652 666 667 651 640 637 637 636 634 632 635 637 643 654 660 656 647 640 637 640 642 640 640 639 634 632 633 632 632 634 635 635 635 634 635 640 645 649 650 650 651 653 654 654 656 660 665 669 672 675 678 683 686 689 693 696 700 703 706 711 713 716 720 723 725 729 731 734 738 740 742 743 745 748 749 753 757 758 757 757 760 763 765
674 660 652 656 670 681 666 637 628 633 633 633 634 632 628 627 630 636 639 637 635 635 637 639 640 638 635 633 630 628 629 630 631 630 629 630 631 630 629 633 639 644 644 645 646 648 652 653 653 658 663 667 671 674 677 681 684 687 690 694 698 701 705 708 711 714 718 720 723 726 728 732 735 737 739 741 743 746 748 751 754 756 756 757 759 762 764
669 659 660 679 686 668 641 624 622 626 626 628 631 628 619 617 620 623 625 626 626 629 631 630 630 630 627 626 625 623 622 624 626 626 625 624 626 627 627 629 636 640 640 641 642 644 649 651 652 656 661 665 669 672 676 679 682 685 689 692 696 699 703 706 709 712 715 718 721 724 727 730 733 735 737 739 742 744 747 749 751 753 754 755 757 760 762
668 668 674 686 674 645 628 626 623 625 630 634 640 641 628 618 619 621 623 623 620 620 623 621 620 621 620 621 621 617 615 616 617 618 619 618 619 621 622 626 632 634 634 636 638 641 645 648 649 653 658 662 666 670 674 677 680 684 687 690 693 697 700 703 706 709 712 715 719 722 726 729 731 733 735 738 741 743 745 747 749 751 753 753 754 757 760
667 674 672 666 660 650 644 641 636 638 642 642 648 655 643 624 621 622 621 621 618 616 616 616 615 615 620 626 622 611 608 609 608 609 610 610 610 611 613 619 626 629 630 632 635 639 642 644 646 649 655 660 664 668 672 675 678 682 685 688 691 694 697 700 703 706 710 713 717 721 724 726 729 731 734 736 739 741 743 744 746 749 751 751 752 754 757
660 669 671 667 670 670 661 654 645 638 639 637 642 656 652 632 624 624 624 624 622 617 615 615 616 620 630 636 624 608 604 605 604 606 607 606 605 607 610 616 621 625 628 629 632 635 638 641 642 646 653 658 662 666 669 672 676 679 682 685 689 692 695 698 701 704 708 711 715 719 722 724 727 730 732 734 736 738 741 743 744 747 749 750 750 752 754
660 667 674 673 672 667 659 653 643 636 637 635 642 661 663 644 632 631 632 634 631 625 621 616 616 627 638 636 621 607 604 603 601 604 606 605 605 607 610 613 618 621 625 628 630 633 636 638 640 644 650 655 660 664 667 669 673 676 679 683 686 690 693 696 699 703 706 709 712 716 719 722 725 728 730 732 734 736 739 741 743 746 748 749 749 751 753
661 665 670 665 659 654 649 646 642 638 635 637 658 680 670 646 640 638 636 637 635 630 627 621 619 626 631 625 613 604 601 597 594 598 603 604 605 606 608 611 615 620 623 626 629 631 633 636 638 642 648 653 658 661 664 667 671 674 678 682 685 689 692 695 698 701 704 707 710 713 717 719 722 725 728 730 732 734 737 741 743 744 746 747 748 750 752
658 664 668 662 651 642 638 640 639 636 639 653 675 681 659 641 641 639 635 636 633 628 629 627 623 618 610 605 603 599 596 593 592 595 600 601 602 604 607 611 615 620 624 626 628 630 633 636 638 642 647 652 656 659 662 667 671 674 679 682 685 689 692 694 698 700 703 706 709 712 715 717 720 723 725 728 729 731 735 739 741 742 744 745 747 749 751
651 654 661 664 654 634 628 635 634 636 657 676 672 656 643 639 639 636 635 635 631 628 628 625 621 614 602 597 598 598 598 599 599 600 601 602 603 606 608 612 617 620 623 626 630 632 634 637 641 645 649 652 656 660 663 668 672 676 680 684 686 689 692 695 699 701 704 706 709 711 714 716 719 721 723 725 727 729 733 736 738 740 742 744 746 748 749
647 651 657 666 660 636 627 636 640 643 659 665 651 640 638 637 634 634 635 632 630 630 628 622 618 614 607 602 601 602 604 607 608 606 604 605 607 609 611 615 618 620 623 626 630 633 635 638 643 647 651 654 658 662 665 669 674 678 682 685 688 691 694 697 700 703 705 707 709 711 713 715 718 720 722 723 725 727 731 733 736 738 740 742 745 746 746
642 652 653 652 645 631 626 635 644 646 647 643 639 641 640 635 633 634 634 632 630 630 630 626 620 613 610 608 607 609 612 613 613 610 607 608 610 612 614 617 618 620 624 626 630 634 636 639 644 648 651 655 659 663 667 671 674 678 681 684 687 692 696 699 702 704 706 707 709 711 713 715 717 719 721 722 724 727 730 732 735 737 739 740 742 743 744
630 638 639 635 632 628 627 631 637 641 640 637 637 639 638 636 635 633 633 634 631 628 631 631 624 616 612 611 611 614 617 616 614 612 610 611 612 613 615 618 620 624 627 629 632 635 638 641 645 649 653 657 660 664 668 671 675 678 680 683 685 691 697 700 703 704 705 707 709 711 712 715 716 718 720 722 723 726 728 730 733 734 736 737 738 740 741
630 634 634 633 634 634 632 633 635 637 638 637 637 638 638 637 634 632 633 634 631 629 630 631 628 622 618 618 618 619 620 619 616 615 615 615 615 618 621 623 626 628 631 633 634 636 639 644 648 652 657 660 663 667 670 673 676 679 681 683 685 691 696 700 702 704 705 707 709 711 712 715 716 718 720 721 722 724 726 727 729 730 731 734 736 737 739
641 644 640 636 638 638 635 637 638 637 638 639 638 639 639 637 634 634 634 635 634 631 629 629 629 627 625 627 626 624 625 625 623 621 622 622 621 624 627 628 630 631 632 634 636 639 643 647 651 655 660 662 665 669 671 673 676 679 682 684 687 691 696 699 702 704 705 706 708 710 712 714 716 718 719 720 721 722 723 724 725 726 729 731 732 734 736
647 648 643 639 640 641 639 642 645 644 644 643 640 639 640 639 639 638 638 640 642 639 634 633 631 631 633 634 632 631 633 633 632 631 631 629 627 628 630 631 632 633 635 638 641 644 648 652 655 658 661 664 667 669 671 673 676 679 681 684 687 691 696 699 701 703 704 706 707 709 711 713 715 716 717 718 718 719 720 721 722 723 725 726 728 730 732
659 654 648 644 646 648 647 649 651 650 649 647 645 644 645 646 648 647 645 646 648 647 644 640 637 637 638 636 634 636 638 638 638 638 636 634 632 632 633 635 636 638 641 644 647 650 653 657 659 662 664 667 669 670 672 674 676 678 680 682 686 690 694 697 700 703 704 705 706 707 709 711 713 714 714 715 716 716 717 718 719 720 722 724 726 727 730
673 668 660 654 654 656 656 655 656 655 654 652 649 648 650 654 656 657 657 655 652 651 648 645 644 645 643 638 636 638 640 641 642 640 638 637 636 637 639 641 642 644 647 649 651 654 657 660 662 665 667 669 671 672 674 675 676 677 679 682 685 689 692 695 698 700 702 703 704 706 708 710 712 713 713 714 715 715 716 717 718 720 721 723 725 727 730
674 669 664 660 658 659 659 659 659 657 656 656 655 653 657 660 661 663 666 666 662 658 654 650 649 649 647 643 640 640 643 645 645 643 642 642 642 643 645 646 648 650 652 654 656 658 660 662 664 666 667 670 672 674 675 676 677 678 680 683 685 687 690 692 694 697 699 701 702 705 707 709 711 712 713 714 715 716 716 717 718 719 721 722 725 727 730
666 663 662 661 659 660 660 661 662 661 659 661 661 660 660 663 665 668 672 672 670 665 660 657 655 654 652 649 645 646 649 651 650 650 650 648 648 649 650 651 653 655 656 658 660 661 663 664 665 666 668 670 672 675 676 677 679 680 682 684 685 686 689 691 693 696 698 700 702 705 707 709 710 711 713 714 716 716 717 717 718 719 720 723 725 728 729
662 660 659 659 659 660 660 660 662 663 662 663 666 666 664 665 669 673 675 675 673 669 665 664 663 661 658 654 651 652 655 656 657 657 655 654 655 655 655 656 657 658 659 662 663 664 665 666 666 667 669 672 674 676 678 679 680 682 684 685 686 686 688 691 695 697 700 701 704 705 706 708 710 712 713 714 716 717 718 718 718 720 721 724 726 728 729
662 659 658 660 661 661 660 661 663 664 665 666 669 671 670 670 672 675 676 677 675 671 670 670 669 667 664 662 661 661 662 662 663 662 661 661 661 660 660 661 661 662 664 665 665 666 666 667 668 669 671 673 675 677 678 680 682 683 685 686 686 687 689 692 695 698 700 702 703 704 706 708 709 711 712 713 714 716 718 718 719 722 724 726 727 729 731
666 664 663 666 669 668 666 666 667 667 667 669 672 674 675 674 676 678 678 678 678 676 674 674 674 672 671 670 670 670 669 669 669 668 667 667 667 667 668 667 667 668 668 668 669 669 669 669 670 671 672 674 676 677 679 681 682 683 685 687 687 689 691 693 695 697 699 700 701 703 705 707 708 710 711 712 713 715 717 718 721 724 728 730 730 732 733
673 671 671 674 678 678 675 673 671 670 669 670 672 674 676 678 679 682 683 682 682 680 678 677 677 678 678 679 679 678 676 675 675 674 673 673 673 673 673 672 672 672 672 671 672 672 671 671 672 673 674 676 677 677 679 680 682 683 686 687 688 690 692 694 695 695 696 698 699 701 704 706 707 708 710 711 713 714 716 719 722 725 729 731 732 733 735
680 679 678 678 679 681 680 679 678 677 676 675 674 674 676 678 681 684 686 685 683 684 683 682 681 681 683 685 685 684 683 682 681 681 680 679 679 679 678 677 675 675 674 674 673 673 673 673 673 674 676 677 677 678 679 680 681 683 684 685 687 689 691 693 693 694 695 697 698 701 703 705 707 708 709 711 712 713 715 718 721 724 727 730 731 733 736
686 684 684 684 682 682 684 683 683 683 683 682 680 679 679 681 683 686 687 686 686 687 687 686 685 685 686 688 689 689 688 687 686 685 685 684 684 684 683 681 678 677 678 677 676 675 675 674 674 676 677 676 677 678 679 680 681 682 683 685 686 687 689 691 692 693 695 698 700 702 704 705 706 708 709 710 711 713 715 718 721 724 727 729 730 732 734
689 687 688 688 686 686 687 686 686 687 687 686 686 684 683 684 686 688 688 688 688 689 689 689 690 690 691 692 693 693 692 690 689 689 689 689 689 688 688 686 684 682 682 682 680 679 678 676 677 678 678 677 678 678 679 680 681 682 683 685 686 687 689 691 692 694 696 698 701 703 704 705 706 707 708 709 711 713 715 717 720 723 726 727 728 730 732
690 690 690 690 689 689 690 689 689 690 690 690 690 689 687 687 689 690 690 690 691 690 689 690 692 692 693 694 695 694 694 693 693 693 692 693 692 692 692 691 689 686 685 685 683 682 680 679 679 680 680 679 679 679 679 680 681 682 683 685 687 689 690 691 693 694 696 698 700 702 704 705 706 707 708 709 710 712 713 715 718 720 722 724 725 727 729
694 695 694 694 692 692 692 692 692 693 693 693 693 692 691 689 690 691 692 692 692 692 692 692 693 693 694 694 695 694 694 694 694 694 694 695 695 695 694 692 690 688 687 686 684 683 682 681 681 681 681 680 680 680 680 680 681 682 684 685 687 689 691 692 693 694 696 698 699 701 703 705 705 706 707 708 709 711 712 714 716 718 720 722 724 725 727
696 697 697 696 694 693 692 692 692 693 693 694 694 694 693 692 692 692 693 693 694 695 695 695 695 694 694 694 694 694 694 694 694 694 694 695 695 694 692 690 688 687 686 686 685 684 683 683 682 682 681 681 681 681 681 682 682 683 684 686 687 689 690 692 693 694 695 697 699 700 702 703 704 706 707 708 710 711 713 714 715 717 719 721 723 725 727
696 696 696 694 693 692 691 691 691 692 692 693 692 692 692 692 693 694 694 695 695 696 696 696 695 694 694 695 695 694 695 695 695 695 694 694 693 691 689 687 686 685 685 686 685 684 683 684 683 683 682 682 682 682 683 683 683 683 684 686 688 689 690 691 692 693 694 696 698 700 702 703 704 706 708 709 711 712 713 714 716 717 718 721 723 725 727
695 695 695 694 694 693 693 692 692 693 693 694 693 692 693 694 694 695 696 696 696 696 696 696 696 695 695 696 697 697 697 696 695 695 694 693 692 690 689 687 685 685 686 687 686 685 685 685 684 684 683 683 683 683 684 685 685 685 685 686 687 689 691 691 692 693 694 696 698 699 701 703 705 707 708 710 711 712 713 714 716 717 718 721 723 725 728
694 694 694 694 694 695 695 695 694 694 695 695 694 694 695 696 696 697 698 698 698 698 697 697 697 697 698 698 699 699 698 697 696 695 695 693 693 691 690 689 687 686 687 687 688 687 687 687 686 685 684 684 685 685 686 686 686 686 687 686 687 689 690 691 692 693 694 695 697 699 701 703 705 707 708 709 710 711 713 714 715 717 719 721 723 726 728
694 695 696 696 697 697 697 697 697 696 696 696 696 696 698 698 698 699 699 699 700 701 700 699 699 699 700 700 700 700 699 697 696 696 695 694 693 692 691 690 689 689 689 689 689 689 689 689 688 687 686 686 687 687 687 688 688 687 688 688 688 689 691 691 692 693 695 696 698 699 700 702 704 706 708 709 710 712 713 714 715 717 718 720 723 725 726
697 697 698 698 699 699 698 698 698 697 697 697 697 698 699 699 699 700 700 701 702 702 702 701 700 700 701 701 700 699 698 697 696 696 695 694 693 692 692 693 693 692 692 692 691 691 691 690 689 688 688 688 688 688 688 689 689 689 689 690 690 691 691 692 693 695 696 697 698 699 700 702 704 706 708 709 710 712 713 714 715 716 718 720 722 724 725
699 699 700 700 700 700 699 699 699 699 699 699 699 699 700 700 701 701 701 702 703 703 703 703 702 701 701 700 699 698 698 697 696 696 695 694 693 693 693 695 695 694 694 693 692 692 692 690 689 689 689 689 689 689 689 689 689 690 690 691 691 692 693 693 694 696 697 698 699 700 701 702 704 706 708 710 711 712 713 714 715 716 718 720 722 723 724
700 701 701 701 701 701 700 700 700 701 701 701 701 701 701 702 702 702 703 703 703 703 703 703 702 701 701 700 699 698 698 697 697 696 695 694 693 693 693 695 696 695 694 694 693 693 693 691 690 690 690 690 690 690 690 690 690 690 690 691 692 693 693 694 695 696 697 699 700 700 701 703 705 707 709 710 711 712 713 714 714 715 717 718 720 722 723
701 703 703 703 703 703 702 702 702 702 702 703 703 703 703 703 703 704 704 704 704 703 703 703 702 702 701 701 700 699 698 698 698 698 697 696 695 694 694 696 697 696 695 695 694 694 693 693 692 692 692 691 691 691 691 691 691 691 691 692 693 693 694 695 695 696 698 699 700 701 702 704 706 708 708 709 710 711 713 714 714 715 716 717 718 720 721
703 704 704 704 705 704 704 704 703 703 703 704 704 705 705 705 704 704 704 704 704 704 703 703 703 702 702 701 701 700 699 698 698 698 698 698 698 697 697 697 698 697 696 695 694 693 694 694 693 693 693 693 693 693 693 692 692 692 692 693 694 694 695 695 696 696 697 699 700 701 703 704 705 706 707 708 709 710 711 712 713 714 715 715 716 717 718
705 705 705 706 706 706 706 706 705 704 705 705 706 706 707 706 706 706 705 705 705 704 704 704 703 702 702 702 701 701 700 699 698 697 697 697 698 698 698 698 698 698 697 695 694 694 695 695 695 695 694 694 694 694 693 693 693 693 693 693 695 695 696 696 696 697 698 699 700 701 703 704 705 705 706 708 709 710 711 711 712 713 714 715 715 716 717
707 707 707 708 708 708 708 708 706 706 706 706 706 707 707 707 707 707 707 706 706 705 705 705 704 703 702 702 701 701 700 700 699 698 697 697 698 699 700 699 699 698 697 696 695 695 696 697 696 696 696 695 695 694 693 693 693 694 694 694 695 695 695 696 697 699 700 701 701 702 703 705 706 706 707 708 710 711 711 711 711 712 713 713 714 714 715
708 709 709 709 709 710 710 709 708 708 707 706 706 707 707 706 707 707 707 707 706 706 705 706 705 705 705 703 702 701 700 699 699 700 699 699 700 700 700 700 700 699 698 696 695 696 697 698 698 698 697 697 696 695 694 694 694 694 695 696 696 696 697 698 698 699 701 702 703 703 704 705 705 706 707 707 709 710 710 710 711 712 714 714 715 716 717
710 710 711 711 711 711 710 709 709 709 709 708 708 708 707 708 708 707 707 706 706 705 705 706 706 705 706 705 703 703 702 701 699 699 699 699 699 700 700 700 700 699 699 698 697 698 698 699 699 699 699 699 698 696 696 696 695 694 694 695 696 697 698 698 699 700 701 702 703 703 704 703 703 704 706 708 709 710 711 711 713 714 714 715 716 717 718
711 711 712 712 712 712 711 710 710 710 710 710 710 709 709 709 709 708 707 706 705 703 703 704 705 705 705 705 704 704 705 704 702 701 701 700 699 698 699 699 699 699 699 698 698 699 700 700 700 700 700 700 699 698 697 697 698 697 696 695 696 696 696 698 699 699 700 701 702 703 704 704 704 705 706 708 710 710 711 712 713 713 713 713 714 716 717
711 711 712 712 713 712 711 710 709 710 711 710 710 710 710 709 709 709 708 707 705 704 703 704 706 706 706 705 704 705 706 706 705 704 704 703 701 700 700 699 699 699 699 699 698 699 700 700 701 701 701 701 700 699 697 697 698 699 698 698 697 697 696 697 698 698 699 701 702 703 704 705 706 707 708 709 709 710 711 712 712 712 713 714 714 715 717
711 711 712 712 712 713 713 711 710 711 711 710 710 711 711 709 708 709 709 708 707 706 706 707 707 707 707 706 706 706 706 706 706 705 705 704 702 702 701 700 699 699 699 699 699 699 699 700 701 701 701 701 701 700 698 698 699 699 700 700 700 699 699 699 699 699 700 701 702 703 704 705 706 707 708 709 709 710 711 711 712 712 713 713 714 715 716
713 712 712 713 713 714 715 715 715 714 714 712 712 712 711 710 709 709 710 710 709 708 707 708 709 709 708 708 708 707 707 706 706 705 705 704 703 702 701 700 700 699 700 700 700 699 699 700 700 701 701 701 701 700 700 700 699 699 699 700 700 700 699 700 701 702 702 703 704 704 704 705 706 707 708 709 710 710 711 711 711 711 712 712 713 713 714
716 715 714 714 714 714 715 717 717 717 716 715 714 714 714 712 711 711 711 711 711 710 710 710 710 710 709 709 709 709 709 708 707 707 706 705 704 703 702 701 700 700 700 700 700 699 699 699 699 700 700 700 700 700 700 700 700 699 699 699 699 699 699 699 700 702 703 704 704 705 704 704 705 706 707 707 708 709 710 710 710 710 710 710 710 711 711